Location: La Tine
(46.4708°N, 7.0525°E)
Time: 08:45:14
(UTC+00:00)

Cosmos 1833 Rocket - Pass Details

Date: 25 January 2021
Orbit: 833 x 839 km, 71.0° (Epoch: 24 February)

Event Time Altitude Azimuth Distance (km) Brightness Sun altitude
Rises 18:07:42 0° 335° (NNW) 3,392 6.1 -17.5°
Reaches altitude 10° 18:10:11 10° 339° (NNW) 2,454 5.3 -17.9°
Maximum altitude 18:15:46 62° 60° (ENE) 937 2.6 -18.8°
Enters shadow 18:20:10 17° 138° (SE) 2,019 4.3 -19.6°
